SXS22AB LTAI-EDDS

Flight info

Callsign SXS22AB
Flight time N/A
Altitude 36000
Route OSVEL UQ23 OSDAN UQ26 BKZ DCT IBLAX DCT RASUB DCT INVED/N0450F380 DCT SUNIS DCT TITIG L173 MAH/N0377F240 L173 DODIL T127 TEKSI TEKSI1W
Aircraft B738/M-SDE2E3FGHIRWXY/LB1

Departure

Time N/A
Airport Antalya International Airport (LTAI)

Arrival

Time 2026-05-07 21:11
Airport Stuttgart Airport (EDDS)
Time Latitude Longitude Altitude Speed Heading
2026-05-07 20:33 47.83041 13.56710 36070 ft 418 kts 287°
2026-05-07 20:33 47.84940 13.48517 36069 ft 418 kts 287°
2026-05-07 20:34 47.86829 13.40331 36071 ft 419 kts 287°
2026-05-07 20:34 47.88719 13.32112 36088 ft 419 kts 287°
2026-05-07 20:35 47.90601 13.23897 36094 ft 418 kts 287°
2026-05-07 20:35 47.92463 13.15737 36087 ft 418 kts 287°
2026-05-07 20:36 47.94332 13.07517 36097 ft 418 kts 287°
2026-05-07 20:36 47.96191 12.99306 36096 ft 418 kts 287°
2026-05-07 20:37 47.98046 12.91083 36083 ft 417 kts 287°
2026-05-07 20:37 47.99892 12.82867 36084 ft 417 kts 286°
2026-05-07 20:38 48.01729 12.74658 36087 ft 416 kts 286°
2026-05-07 20:38 48.03557 12.66458 36080 ft 416 kts 286°
2026-05-07 20:39 48.05366 12.58318 36066 ft 415 kts 286°
2026-05-07 20:39 48.07236 12.50135 36071 ft 415 kts 288°
2026-05-07 20:40 48.09167 12.41981 36072 ft 416 kts 287°
2026-05-07 20:40 48.11080 12.33816 36071 ft 416 kts 287°
2026-05-07 20:41 48.12991 12.25638 36071 ft 416 kts 287°
2026-05-07 20:41 48.14888 12.17499 36068 ft 416 kts 287°
2026-05-07 20:42 48.16316 12.09134 36063 ft 414 kts 275°
2026-05-07 20:42 48.16827 12.00549 36076 ft 414 kts 274°
2026-05-07 20:43 48.17347 11.91936 36074 ft 415 kts 275°
2026-05-07 20:43 48.17897 11.83333 36072 ft 415 kts 275°
2026-05-07 20:43 48.18365 11.79038 35823 ft 420 kts 282°
2026-05-07 20:44 48.19055 11.74869 35539 ft 414 kts 283°
2026-05-07 20:44 48.19773 11.70707 35101 ft 410 kts 283°
2026-05-07 20:44 48.20484 11.66575 34705 ft 406 kts 283°
2026-05-07 20:44 48.21176 11.62490 34290 ft 402 kts 283°
2026-05-07 20:45 48.21855 11.58427 33855 ft 399 kts 283°
2026-05-07 20:45 48.22519 11.54402 33384 ft 396 kts 283°
2026-05-07 20:45 48.23172 11.50415 32960 ft 392 kts 283°
2026-05-07 20:45 48.23819 11.46459 32553 ft 388 kts 283°
2026-05-07 20:46 48.24457 11.42552 32139 ft 384 kts 283°
2026-05-07 20:46 48.25081 11.38720 31748 ft 381 kts 283°
2026-05-07 20:46 48.25799 11.34907 31337 ft 378 kts 290°
2026-05-07 20:46 48.26925 11.31355 30972 ft 376 kts 298°
2026-05-07 20:47 48.28352 11.28064 30530 ft 377 kts 306°
2026-05-07 20:47 48.30104 11.25149 30136 ft 375 kts 312°
2026-05-07 20:47 48.31927 11.22353 29656 ft 372 kts 313°
2026-05-07 20:47 48.33735 11.19614 29257 ft 367 kts 313°
2026-05-07 20:48 48.35519 11.16899 28864 ft 363 kts 312°
2026-05-07 20:48 48.37283 11.14194 28473 ft 360 kts 312°
2026-05-07 20:48 48.39019 11.11513 28099 ft 356 kts 312°
2026-05-07 20:48 48.40720 11.08876 27710 ft 353 kts 312°
2026-05-07 20:49 48.42440 11.06203 27340 ft 350 kts 311°
2026-05-07 20:49 48.44126 11.03577 26951 ft 347 kts 311°
2026-05-07 20:49 48.45798 11.00971 26587 ft 345 kts 311°
2026-05-07 20:49 48.47462 10.98375 26213 ft 342 kts 311°
2026-05-07 20:50 48.49091 10.95832 25854 ft 340 kts 311°
2026-05-07 20:50 48.50712 10.93271 25437 ft 336 kts 311°
2026-05-07 20:50 48.52303 10.90727 25068 ft 329 kts 311°
2026-05-07 20:50 48.53861 10.88226 24713 ft 324 kts 310°
2026-05-07 20:51 48.55399 10.85760 24373 ft 322 kts 310°
2026-05-07 20:51 48.56941 10.83287 24031 ft 324 kts 310°
2026-05-07 20:51 48.58505 10.80776 23707 ft 335 kts 310°
2026-05-07 20:51 48.60122 10.78188 23289 ft 341 kts 311°
2026-05-07 20:52 48.61733 10.75627 22902 ft 339 kts 311°
2026-05-07 20:52 48.63349 10.73057 22540 ft 335 kts 311°
2026-05-07 20:52 48.64947 10.70508 22194 ft 332 kts 311°
2026-05-07 20:52 48.66536 10.67984 21742 ft 332 kts 311°
2026-05-07 20:53 48.68144 10.65469 21317 ft 331 kts 311°
2026-05-07 20:53 48.69741 10.62977 20939 ft 329 kts 311°
2026-05-07 20:53 48.71327 10.60487 20586 ft 326 kts 309°
2026-05-07 20:53 48.72507 10.57623 20236 ft 319 kts 289°
2026-05-07 20:54 48.72996 10.54384 19887 ft 315 kts 271°
2026-05-07 20:54 48.72878 10.51084 19559 ft 312 kts 264°
2026-05-07 20:54 48.72613 10.47831 19208 ft 311 kts 262°
2026-05-07 20:54 48.72321 10.44597 18873 ft 309 kts 262°
2026-05-07 20:55 48.72031 10.41379 18534 ft 308 kts 262°
2026-05-07 20:55 48.71749 10.38168 18171 ft 307 kts 262°
2026-05-07 20:55 48.71478 10.35014 17804 ft 305 kts 263°
2026-05-07 20:55 48.71208 10.31832 17452 ft 303 kts 263°
2026-05-07 20:56 48.70943 10.28679 17113 ft 301 kts 263°
2026-05-07 20:56 48.70680 10.25543 16779 ft 299 kts 263°
2026-05-07 20:56 48.70418 10.22419 16444 ft 298 kts 263°
2026-05-07 20:56 48.70158 10.19318 16111 ft 295 kts 263°
2026-05-07 20:57 48.69902 10.16266 15777 ft 288 kts 263°
2026-05-07 20:57 48.69651 10.13294 15452 ft 282 kts 263°
2026-05-07 20:57 48.69400 10.10335 15168 ft 285 kts 263°
2026-05-07 20:57 48.69155 10.07313 14859 ft 295 kts 266°
2026-05-07 20:58 48.69308 10.04165 14433 ft 305 kts 279°
2026-05-07 20:58 48.69700 10.01010 14069 ft 304 kts 281°
2026-05-07 20:58 48.70102 9.97904 13703 ft 301 kts 281°
2026-05-07 20:58 48.70495 9.94801 13340 ft 299 kts 280°
2026-05-07 20:59 48.70876 9.91708 12994 ft 297 kts 280°
2026-05-07 20:59 48.71246 9.88647 12670 ft 294 kts 279°
2026-05-07 20:59 48.71606 9.85620 12349 ft 292 kts 279°
2026-05-07 20:59 48.71964 9.82590 11996 ft 291 kts 279°
2026-05-07 21:00 48.72315 9.79590 11606 ft 286 kts 279°
2026-05-07 21:00 48.72658 9.76658 11024 ft 286 kts 279°
2026-05-07 21:00 48.73006 9.73672 10356 ft 289 kts 279°
2026-05-07 21:00 48.73579 9.70759 9660 ft 293 kts 297°
2026-05-07 21:01 48.74896 9.68416 9145 ft 291 kts 316°
2026-05-07 21:01 48.76444 9.66468 8646 ft 287 kts 319°
2026-05-07 21:01 48.77986 9.64603 8212 ft 281 kts 320°
2026-05-07 21:01 48.79506 9.62771 7775 ft 276 kts 319°
2026-05-07 21:02 48.80726 9.60593 7319 ft 269 kts 294°
2026-05-07 21:02 48.81121 9.57882 6909 ft 263 kts 266°
2026-05-07 21:02 48.80617 9.55272 6518 ft 258 kts 238°
2026-05-07 21:02 48.79850 9.53927 6307 ft 254 kts 219°
2026-05-07 21:03 48.78272 9.52833 5951 ft 250 kts 189°
2026-05-07 21:03 48.76570 9.53082 5610 ft 247 kts 159°
2026-05-07 21:03 48.75145 9.54473 5296 ft 242 kts 139°
2026-05-07 21:03 48.73953 9.56239 4961 ft 239 kts 128°
2026-05-07 21:04 48.72860 9.58071 4659 ft 230 kts 141°
2026-05-07 21:04 48.71504 9.59259 4340 ft 223 kts 160°
2026-05-07 21:04 48.70013 9.59762 4053 ft 216 kts 175°
2026-05-07 21:04 48.68586 9.59535 3970 ft 199 kts 206°
2026-05-07 21:05 48.67703 9.58102 4002 ft 189 kts 253°
2026-05-07 21:05 48.67815 9.56174 4016 ft 190 kts 301°
2026-05-07 21:05 48.68789 9.54877 4002 ft 190 kts 336°
2026-05-07 21:05 48.70057 9.54621 4011 ft 184 kts 359°
2026-05-07 21:06 48.71301 9.54878 3985 ft 179 kts 22°
2026-05-07 21:06 48.72489 9.55350 3965 ft 179 kts 351°
2026-05-07 21:06 48.73510 9.54389 4008 ft 180 kts 302°
2026-05-07 21:06 48.74024 9.52634 4017 ft 185 kts 291°
2026-05-07 21:07 48.74184 9.50748 3994 ft 180 kts 259°
2026-05-07 21:07 48.73948 9.48915 3993 ft 179 kts 260°
2026-05-07 21:07 48.73690 9.47081 3992 ft 175 kts 256°
2026-05-07 21:07 48.73386 9.45303 3977 ft 170 kts 255°
2026-05-07 21:08 48.73067 9.43572 3771 ft 174 kts 254°
2026-05-07 21:08 48.72743 9.41860 3580 ft 165 kts 254°
2026-05-07 21:08 48.72431 9.40224 3343 ft 160 kts 254°
2026-05-07 21:08 48.72125 9.38625 3122 ft 157 kts 254°
2026-05-07 21:09 48.71819 9.37028 2919 ft 158 kts 253°
2026-05-07 21:09 48.71512 9.35424 2708 ft 158 kts 253°
2026-05-07 21:09 48.71205 9.33818 2507 ft 159 kts 253°
2026-05-07 21:09 48.70898 9.32215 2278 ft 158 kts 253°
2026-05-07 21:10 48.70598 9.30640 2070 ft 153 kts 254°
2026-05-07 21:10 48.70304 9.29097 1875 ft 152 kts 254°
2026-05-07 21:10 48.70010 9.27555 1687 ft 153 kts 254°
2026-05-07 21:10 48.69716 9.26015 1471 ft 151 kts 254°
2026-05-07 21:11 48.69427 9.24505 1315 ft 148 kts 254°
2026-05-07 21:11 48.69148 9.23040 1274 ft 136 kts 254°
2026-05-07 21:11 48.68819 9.21177 1268 ft 33 kts 271°